| time (UTC) | temp F | wind direction | speed MPH | gust MPH | rain 1hr in | rain 24hr in | rain mn in | humidity % | barometer mb |
| 20260506204523 | 33 | 43 | 0.0 | 5.0 | 0.00 | 0.11 | 0.00 | 83 | 1034.6 |
| 20260506203019 | 33 | 135 | 0.0 | 5.0 | 0.00 | 0.11 | 0.00 | 84 | 1034.9 |
| 20260506201518 | 32 | 53 | 1.0 | 4.0 | 0.00 | 0.11 | 0.00 | 84 | 1034.9 |
| 20260506200016 | 32 | 55 | 0.0 | 5.0 | 0.00 | 0.11 | 0.00 | 86 | 1034.8 |
| 20260506194517 | 32 | 30 | 2.0 | 7.0 | 0.00 | 0.18 | 0.00 | 82 | 1034.5 |
| 20260506193015 | 33 | 119 | 0.0 | 4.0 | 0.00 | 0.18 | 0.00 | 84 | 1034.5 |
| 20260506191515 | 34 | 130 | 0.0 | 5.0 | 0.00 | 0.18 | 0.00 | 83 | 1034.4 |
| 20260506190012 | 34 | 101 | 0.0 | 3.0 | 0.00 | 0.18 | 0.00 | 83 | 1034.6 |
| 20260506184510 | 33 | 173 | 0.0 | 3.0 | 0.00 | 0.22 | 0.00 | 86 | 1034.6 |
| 20260506183008 | 32 | 355 | 1.0 | 6.0 | 0.00 | 0.22 | 0.00 | 85 | 1034.9 |
| 20260506181506 | 32 | 88 | 0.0 | 3.0 | 0.00 | 0.22 | 0.00 | 86 | 1035.0 |
| 20260506180006 | 32 | 28 | 0.0 | 1.0 | 0.00 | 0.22 | 0.00 | 86 | 1035.1 |
| 20260506174504 | 31 | 280 | 0.0 | 2.0 | 0.00 | 0.23 | 0.00 | 88 | 1035.0 |
| 20260506173000 | 30 | 280 | 0.0 | 1.0 | 0.00 | 0.23 | 0.00 | 88 | 1035.1 |
| 20260506171602 | 29 | 280 | 0.0 | 2.0 | 0.00 | 0.23 | 0.00 | 89 | 1034.6 |
| 20260506170106 | 28 | 280 | 0.0 | 3.0 | 0.00 | 0.23 | 0.00 | 87 | 1034.5 |
| 20260506164606 | 28 | 312 | 1.0 | 3.0 | 0.00 | 0.24 | 0.00 | 89 | 1034.6 |
| 20260506163116 | 28 | 54 | 0.0 | 3.0 | 0.00 | 0.24 | 0.00 | 89 | 1034.3 |
| 20260506161606 | 29 | 38 | 0.0 | 2.0 | 0.00 | 0.24 | 0.00 | 88 | 1034.2 |
| 20260506160055 | 29 | 38 | 0.0 | 2.0 | 0.00 | 0.24 | 0.00 | 89 | 1033.9 |
| 20260506154609 | 29 | 311 | 0.0 | 2.0 | 0.00 | 0.24 | 0.00 | 88 | 1033.6 |
| 20260506153102 | 29 | 311 | 0.0 | 3.0 | 0.00 | 0.24 | 0.00 | 89 | 1033.4 |
| 20260506151552 | 28 | 135 | 0.0 | 2.0 | 0.00 | 0.24 | 0.00 | 88 | 1033.1 |
| 20260506150049 | 28 | 58 | 0.0 | 2.0 | 0.00 | 0.24 | 0.00 | 89 | 1032.7 |
| 20260506144548 | 27 | 301 | 0.0 | 3.0 | 0.00 | 0.24 | 0.00 | 89 | 1033.0 |
| 20260506143101 | 27 | 290 | 0.0 | 3.0 | 0.00 | 0.24 | 0.00 | 89 | 1032.8 |
| 20260506141546 | 27 | 51 | 0.0 | 6.0 | 0.00 | 0.24 | 0.00 | 89 | 1032.6 |
| 20260506140045 | 27 | 341 | 0.0 | 2.0 | 0.00 | 0.24 | 0.00 | 90 | 1032.5 |
| 20260506134544 | 27 | 34 | 1.0 | 3.0 | 0.00 | 0.24 | 0.00 | 91 | 1032.4 |
| 20260506133044 | 26 | 60 | 0.0 | 2.0 | 0.00 | 0.24 | 0.00 | 91 | 1032.3 |
| 20260506131543 | 26 | 321 | 0.0 | 3.0 | 0.00 | 0.24 | 0.00 | 91 | 1031.7 |
| 20260506130040 | 26 | 315 | 0.0 | 4.0 | 0.00 | 0.24 | 0.00 | 91 | 1031.6 |
| 20260506124540 | 26 | 318 | 1.0 | 6.0 | 0.00 | 0.24 | 0.00 | 91 | 1031.4 |
| 20260506123039 | 26 | 35 | 1.0 | 5.0 | 0.00 | 0.24 | 0.00 | 92 | 1030.9 |
| 20260506121542 | 26 | 346 | 0.0 | 2.0 | 0.00 | 0.24 | 0.00 | 92 | 1030.5 |
| 20260506120037 | 26 | 55 | 0.0 | 1.0 | 0.00 | 0.24 | 0.00 | 92 | 1030.3 |
| 20260506114543 | 26 | 27 | 0.0 | 4.0 | 0.00 | 0.24 | 0.00 | 92 | 1030.3 |
| 20260506113034 | 26 | 58 | 0.0 | 3.0 | 0.00 | 0.24 | 0.00 | 92 | 1030.2 |
| 20260506111536 | 26 | 269 | 0.0 | 3.0 | 0.00 | 0.24 | 0.00 | 92 | 1029.9 |
| 20260506110031 | 27 | 30 | 0.0 | 2.0 | 0.00 | 0.24 | 0.00 | 92 | 1029.5 |
| 20260506104527 | 27 | 50 | 0.0 | 4.0 | 0.00 | 0.24 | 0.00 | 92 | 1029.4 |
| 20260506103025 | 27 | 34 | 0.0 | 4.0 | 0.00 | 0.24 | 0.00 | 91 | 1029.3 |
| 20260506101527 | 27 | 327 | 1.0 | 5.0 | 0.00 | 0.24 | 0.00 | 91 | 1029.2 |
| 20260506100022 | 27 | 348 | 1.0 | 7.0 | 0.00 | 0.24 | 0.00 | 91 | 1029.1 |
| 20260506094520 | 27 | 305 | 0.0 | 3.0 | 0.00 | 0.24 | 0.00 | 91 | 1029.0 |
| 20260506093019 | 27 | 23 | 0.0 | 3.0 | 0.00 | 0.24 | 0.00 | 91 | 1028.6 |
| 20260506091522 | 28 | 31 | 1.0 | 3.0 | 0.00 | 0.24 | 0.00 | 91 | 1028.4 |
| 20260506090019 | 28 | 28 | 0.0 | 3.0 | 0.00 | 0.24 | 0.00 | 91 | 1028.3 |
| 20260506084516 | 28 | 55 | 1.0 | 6.0 | 0.00 | 0.24 | 0.00 | 91 | 1028.3 |
| 20260506083015 | 27 | 315 | 1.0 | 5.0 | 0.00 | 0.24 | 0.00 | 91 | 1028.3 |
| 20260506081513 | 27 | 303 | 0.0 | 3.0 | 0.00 | 0.24 | 0.00 | 92 | 1028.0 |
| 20260506073009 | 28 | 46 | 0.0 | 3.0 | 0.00 | 0.24 | 0.00 | 92 | 1027.8 |
| 20260506071507 | 28 | 39 | 0.0 | 4.0 | 0.00 | 0.24 | 0.00 | 92 | 1027.7 |
| 20260506061503 | 28 | 105 | 0.0 | 4.0 | 0.00 | 0.24 | 0.24 | 93 | 1027.3 |
| 20260506044555 | 28 | 42 | 0.0 | 2.0 | 0.00 | 0.24 | 0.24 | 94 | 1026.7 |
| 20260506043054 | 28 | 44 | 0.0 | 3.0 | 0.00 | 0.24 | 0.24 | 94 | 1026.0 |
| 20260506041556 | 29 | 317 | 0.0 | 2.0 | 0.00 | 0.24 | 0.24 | 94 | 1026.2 |
| 20260506040100 | 29 | 313 | 0.0 | 1.0 | 0.00 | 0.24 | 0.24 | 94 | 1025.8 |
| 20260506034604 | 29 | 51 | 0.0 | 3.0 | 0.00 | 0.24 | 0.24 | 94 | 1025.6 |
| 20260506033048 | 29 | 66 | 0.0 | 4.0 | 0.00 | 0.24 | 0.24 | 94 | 1025.4 |
| 20260506031557 | 29 | 314 | 0.0 | 2.0 | 0.00 | 0.24 | 0.24 | 94 | 1025.2 |
| 20260506030044 | 29 | 314 | 0.0 | 1.0 | 0.00 | 0.24 | 0.24 | 94 | 1024.5 |
| 20260506024543 | 30 | 313 | 0.0 | 1.0 | 0.00 | 0.24 | 0.24 | 94 | 1024.2 |
| 20260506023042 | 30 | 314 | 0.0 | 2.0 | 0.00 | 0.24 | 0.24 | 94 | 1023.9 |
| 20260506021539 | 30 | 313 | 0.0 | 2.0 | 0.00 | 0.24 | 0.24 | 94 | 1023.5 |
| 20260506020039 | 30 | 313 | 0.0 | 2.0 | 0.00 | 0.24 | 0.24 | 94 | 1023.4 |
| 20260506014538 | 31 | 313 | 0.0 | 1.0 | 0.00 | 0.25 | 0.24 | 94 | 1023.0 |
| 20260506013036 | 31 | 313 | 0.0 | 3.0 | 0.00 | 0.25 | 0.24 | 94 | 1022.7 |
| 20260506011537 | 31 | 131 | 0.0 | 0.0 | 0.00 | 0.25 | 0.24 | 94 | 1022.5 |
| 20260506010041 | 31 | 130 | 0.0 | 1.0 | 0.00 | 0.25 | 0.24 | 94 | 1022.4 |
| 20260506004536 | 31 | 131 | 0.0 | 2.0 | 0.00 | 0.25 | 0.24 | 94 | 1022.2 |
| 20260506003037 | 31 | 113 | 0.0 | 2.0 | 0.00 | 0.25 | 0.24 | 94 | 1022.3 |
| 20260506001531 | 31 | 120 | 0.0 | 3.0 | 0.00 | 0.25 | 0.24 | 94 | 1022.1 |
| 20260506000032 | 32 | 107 | 1.0 | 5.0 | 0.00 | 0.25 | 0.24 | 94 | 1021.6 |
| 20260505234530 | 32 | 128 | 3.0 | 6.0 | 0.01 | 0.25 | 0.24 | 94 | 1021.0 |
| 20260505233030 | 32 | 128 | 3.0 | 8.0 | 0.02 | 0.25 | 0.24 | 94 | 1020.7 |
| 20260505231532 | 33 | 115 | 1.0 | 7.0 | 0.02 | 0.25 | 0.24 | 94 | 1020.5 |
| 20260505230031 | 33 | 59 | 3.0 | 9.0 | 0.03 | 0.25 | 0.24 | 94 | 1019.8 |
| 20260505224524 | 33 | 128 | 2.0 | 8.0 | 0.04 | 0.24 | 0.23 | 94 | 1019.7 |
| 20260505223023 | 33 | 119 | 2.0 | 7.0 | 0.03 | 0.23 | 0.22 | 94 | 1019.3 |
| 20260505221521 | 33 | 131 | 3.0 | 10.0 | 0.04 | 0.23 | 0.22 | 94 | 1019.3 |
| 20260505220019 | 33 | 78 | 1.0 | 7.0 | 0.03 | 0.21 | 0.20 | 94 | 1019.4 |
| 20260505214518 | 33 | 105 | 2.0 | 8.0 | 0.03 | 0.20 | 0.19 | 94 | 1019.6 |
| 20260505213017 | 33 | 119 | 2.0 | 7.0 | 0.04 | 0.20 | 0.19 | 94 | 1019.5 |
| 20260505211516 | 33 | 116 | 4.0 | 9.0 | 0.04 | 0.19 | 0.18 | 94 | 1019.5 |
| 20260505210023 | 33 | 96 | 2.0 | 8.0 | 0.04 | 0.18 | 0.17 | 93 | 1019.6 |